Date String (YYYY-MM-DD hh:mm:ss) UTC,Instrument flags,Ambient pressure (hPa),Sample flow (lpm),Bypass flow (lpm),Sample temperature (°C),Ambient temperature (°C),ASC tube jacket temperature (°C),LED temperature (°C),Box temperature (°C),Sample RH (%),Span deviation,Mass concentration (μg/m³),Mass concentration (μg/m³),Mass concentration (μg/m³)
DateTimeUTC,F1_M11,P_M11,Q1_M11,Q2_M11,T1_M11,T2_M11,T3_M11,T4_M11,T5_M11,U1_M11,ZSPAN_M11,X2_M11,X0_M11,X1_M11
2021-09-29 05:00:00,,0819.3,5.00,0.00,29.7,28.7,00.0,38.8,31.6,19.7,0001.8,0005.34,0013.84,0004.39
2021-09-29 05:01:00,,0819.3,5.00,0.00,29.8,28.8,00.0,38.8,31.6,19.7,0002.0,0005.33,0014.34,0004.39
2021-09-29 05:02:00,,0819.3,5.00,0.00,29.8,28.8,00.0,38.8,31.6,19.8,0002.1,0005.35,0013.84,0004.41
2021-09-29 05:03:00,,0819.4,4.99,0.00,29.8,28.9,00.0,38.8,31.7,19.8,0002.4,0005.37,0013.68,0004.44
2021-09-29 05:04:00,,0819.4,5.00,0.00,29.9,28.9,00.0,38.9,31.7,19.8,0002.5,0005.39,0014.35,0004.48
2021-09-29 05:05:00,,0819.4,4.99,0.00,29.9,29.0,00.0,38.9,31.7,20.1,0002.5,0005.43,0014.68,0004.54
2021-09-29 05:06:00,,0819.4,5.01,0.00,29.9,29.0,00.0,38.9,31.8,20.1,0002.7,0005.52,0015.08,0004.61
2021-09-29 05:07:00,,0819.4,4.99,0.00,29.9,29.0,00.0,38.9,31.8,20.0,0002.6,0005.58,0015.45,0004.65
2021-09-29 05:08:00,,0819.4,5.00,0.00,29.9,29.0,00.0,39.0,31.8,20.0,0002.3,0005.68,0015.87,0004.71
2021-09-29 05:09:00,,0819.4,5.01,0.00,30.0,29.0,00.0,39.0,31.8,20.0,0002.2,0005.78,0015.91,0004.76
2021-09-29 05:10:00,,0819.4,5.00,0.00,30.0,29.0,00.0,39.0,31.8,20.1,0002.6,0005.81,0015.19,0004.79
2021-09-29 05:11:00,,0819.4,5.01,0.00,30.0,29.0,00.0,39.0,31.8,20.0,0002.7,0005.84,0014.55,0004.80
2021-09-29 05:12:00,,0819.4,4.99,0.00,30.0,29.1,00.0,39.0,31.8,19.9,0002.2,0005.83,0013.87,0004.80
2021-09-29 05:13:00,,0819.4,5.00,0.00,30.0,28.9,00.0,39.0,31.8,19.9,0002.0,0005.82,0013.77,0004.80
2021-09-29 05:14:00,,0819.4,4.99,0.00,29.9,27.1,00.0,39.0,31.2,20.0,0001.8,0005.87,0014.63,0004.79
2021-09-29 05:15:00,,0819.4,4.99,0.00,29.7,26.1,00.0,39.0,31.0,20.2,0001.8,0005.87,0015.60,0004.79
2021-09-29 05:16:00,,0819.4,5.00,0.00,29.6,26.3,00.0,38.9,31.0,20.3,0001.8,0005.82,0015.25,0004.77
2021-09-29 05:17:00,,0819.4,5.01,0.00,29.5,26.7,00.0,38.9,31.0,20.4,0001.6,0005.77,0015.06,0004.72
2021-09-29 05:18:00,,0819.4,5.00,0.00,29.5,27.1,00.0,38.8,31.1,20.6,0001.7,0005.75,0015.37,0004.71
2021-09-29 05:19:00,,0819.5,5.00,0.00,29.5,27.5,00.0,38.8,31.1,20.6,0001.8,0005.68,0015.27,0004.69
2021-09-29 05:20:00,,0819.5,5.01,0.00,29.5,27.7,00.0,38.8,31.2,20.6,0001.9,0005.63,0015.21,0004.68
2021-09-29 05:21:00,,0819.5,4.99,0.00,29.5,28.0,00.0,38.8,31.2,20.6,0001.8,0005.64,0015.87,0004.68
2021-09-29 05:22:00,,0819.5,5.01,0.00,29.6,28.1,00.0,38.8,31.3,20.6,0001.7,0005.64,0015.37,0004.69
2021-09-29 05:23:00,,0819.5,5.00,0.00,29.6,28.3,00.0,38.7,31.3,20.6,0001.9,0005.63,0015.11,0004.70
2021-09-29 05:24:00,,0819.5,5.00,0.00,29.6,28.4,00.0,38.8,31.4,20.7,0001.8,0005.61,0014.86,0004.72
2021-09-29 05:25:00,,0819.5,5.00,0.00,29.6,28.5,00.0,38.8,31.4,20.6,0001.8,0005.60,0014.69,0004.73
2021-09-29 05:26:00,,0819.5,4.99,0.00,29.7,28.5,00.0,38.8,31.4,20.6,0001.8,0005.55,0013.75,0004.74
2021-09-29 05:27:00,,0819.5,5.01,0.00,29.7,28.6,00.0,38.8,31.4,20.5,0001.8,0005.57,0013.71,0004.75
2021-09-29 05:28:00,,0819.5,4.99,0.00,29.7,28.7,00.0,38.8,31.5,20.5,0001.7,0005.56,0014.39,0004.77
2021-09-29 05:29:00,,0819.5,5.01,0.00,29.7,28.7,00.0,38.8,31.5,20.5,0001.8,0005.53,0014.04,0004.78
2021-09-29 05:30:00,,0819.5,5.00,0.00,29.8,28.8,00.0,38.8,31.6,20.3,0002.1,0005.52,0014.34,0004.77
2021-09-29 05:31:00,,0819.6,4.99,0.00,29.8,28.8,00.0,38.8,31.6,20.1,0002.0,0005.55,0014.74,0004.77
2021-09-29 05:32:00,,0819.5,5.01,0.00,29.8,28.9,00.0,38.8,31.6,20.1,0001.9,0005.59,0014.06,0004.76
2021-09-29 05:33:00,,0819.5,5.01,0.00,29.8,28.9,00.0,38.9,31.6,19.9,0001.8,0005.58,0014.10,0004.75
2021-09-29 05:34:00,,0819.5,4.98,0.00,29.9,28.9,00.0,38.9,31.7,19.8,0001.6,0005.57,0014.44,0004.74
2021-09-29 05:35:00,,0819.5,5.01,0.00,29.9,28.9,00.0,38.9,31.7,19.7,0001.6,0005.57,0015.22,0004.73
2021-09-29 05:36:00,,0819.5,5.00,0.00,29.9,29.0,00.0,38.9,31.7,19.7,0001.8,0005.56,0014.67,0004.72
2021-09-29 05:37:00,,0819.5,5.00,0.00,29.9,29.0,00.0,38.9,31.8,19.7,0001.8,0005.55,0014.76,0004.71
2021-09-29 05:38:00,,0819.5,5.00,0.00,30.0,29.1,00.0,38.9,31.8,19.6,0001.8,0005.56,0015.25,0004.70
2021-09-29 05:39:00,,0819.5,5.01,0.00,30.0,29.1,00.0,39.0,31.7,19.6,0001.9,0005.57,0014.65,0004.70
2021-09-29 05:40:00,,0819.5,5.00,0.00,30.0,29.1,00.0,39.0,31.8,19.6,0001.8,0005.58,0015.42,0004.69
2021-09-29 05:41:00,,0819.5,4.99,0.00,30.0,29.1,00.0,39.0,31.8,19.6,0001.5,0005.56,0015.16,0004.68
2021-09-29 05:42:00,,0819.5,5.01,0.00,30.0,29.1,00.0,39.0,31.9,19.6,0001.5,0005.51,0015.41,0004.66
2021-09-29 05:43:00,,0819.5,4.99,0.00,30.1,29.1,00.0,39.0,31.9,19.6,0001.2,0005.46,0015.48,0004.65
2021-09-29 05:44:00,,0819.4,5.01,0.00,30.1,29.2,00.0,39.1,31.9,19.5,0001.5,0005.50,0015.73,0004.66
2021-09-29 05:45:00,,0819.4,5.00,0.00,30.1,29.2,00.0,39.1,31.9,19.5,0002.0,0005.50,0015.75,0004.66
2021-09-29 05:46:00,,0819.4,5.00,0.00,30.1,29.2,00.0,39.1,31.9,19.5,0001.9,0005.50,0015.27,0004.64
2021-09-29 05:47:00,,0819.4,4.99,0.00,30.1,29.2,00.0,39.1,31.9,19.5,0001.9,0005.55,0015.83,0004.62
2021-09-29 05:48:00,,0819.4,5.01,0.00,30.0,27.5,00.0,39.1,31.5,19.5,0001.8,0005.58,0016.31,0004.61
2021-09-29 05:49:00,,0819.4,4.99,0.00,29.9,26.2,00.0,39.1,31.1,19.7,0001.7,0005.58,0015.78,0004.61
2021-09-29 05:50:00,,0819.4,5.01,0.00,29.8,26.3,00.0,39.0,31.1,19.8,0001.8,0005.57,0015.76,0004.59
2021-09-29 05:51:00,,0819.4,5.00,0.00,29.7,26.7,00.0,39.0,31.2,20.0,0001.7,0005.57,0015.71,0004.57
2021-09-29 05:52:00,,0819.4,5.00,0.00,29.6,27.1,00.0,39.0,31.2,20.1,0001.6,0005.58,0016.07,0004.57
2021-09-29 05:53:00,,0819.4,5.00,0.00,29.6,27.4,00.0,38.9,31.2,20.1,0001.6,0005.59,0017.41,0004.58
2021-09-29 05:54:00,,0819.3,5.01,0.00,29.6,27.7,00.0,38.9,31.3,20.1,0001.9,0005.64,0019.25,0004.58
2021-09-29 05:55:00,,0819.4,4.99,0.00,29.6,27.9,00.0,38.9,31.3,20.1,0001.9,0005.60,0019.59,0004.56
2021-09-29 05:56:00,,0819.4,5.01,0.00,29.6,28.0,00.0,38.9,31.4,20.0,0001.7,0005.63,0019.65,0004.55
2021-09-29 05:57:00,,0819.4,5.00,0.00,29.6,28.2,00.0,38.9,31.4,20.0,0001.7,0005.66,0019.91,0004.55
2021-09-29 05:58:00,,0819.3,5.00,0.00,29.6,28.2,00.0,38.8,31.4,20.0,0001.8,0005.64,0019.92,0004.56
2021-09-29 05:59:00,,0819.3,5.00,0.00,29.6,28.3,00.0,38.8,31.3,20.0,0001.4,0005.64,0019.06,0004.57
